Hourly Weather Kitunkino

Today, 27 July, Tuesday

Time Temperature Precipitation Wind Pressure Humidity
00:00 +14°C° 0 mm 2 mps 749 mmHg 71%
01:00 +15°C° 0 mm 2 mps 749 mmHg 68%
02:00 +15°C° 0 mm 2 mps 749 mmHg 65%
03:00 +16°C° 0 mm 2 mps 749 mmHg 62%
04:00 +16°C° 0 mm 3 mps 749 mmHg 64%
05:00 +17°C° 0 mm 3 mps 749 mmHg 65%
06:00 +17°C° 0 mm 3 mps 749 mmHg 67%
07:00 +19°C° 0 mm 4 mps 749 mmHg 63%
08:00 +20°C° 0 mm 4 mps 749 mmHg 59%
09:00 +22°C° 0 mm 4 mps 749 mmHg 56%
10:00 +22°C° 0 mm 4 mps 749 mmHg 52%
11:00 +23°C° 0 mm 5 mps 748 mmHg 49%
12:00 +25°C° 0 mm 5 mps 748 mmHg 46%
13:00 +25°C° 0 mm 5 mps 748 mmHg 46%
14:00 +23°C° 0 mm 4 mps 748 mmHg 46%
15:00 +23°C° 0 mm 4 mps 748 mmHg 46%
16:00 +23°C° 0 mm 4 mps 748 mmHg 46%
17:00 +24°C° 0 mm 3 mps 747 mmHg 46%
18:00 +22°C° 0 mm 3 mps 747 mmHg 46%
19:00 +20°C° 0 mm 3 mps 747 mmHg 51%
20:00 +18°C° 0 mm 2 mps 748 mmHg 56%
21:00 +16°C° 0 mm 2 mps 748 mmHg 62%
22:00 +15°C° 0 mm 1 mps 748 mmHg 62%
23:00 +14°C° 0 mm 1 mps 748 mmHg 62%

Tomorrow, 28 July, Wednesday

Time Temperature Precipitation Wind Pressure Humidity
00:00 +14°C° 0 mm 1 mps 748 mmHg 62%
01:00 +14°C° 0 mm 1 mps 748 mmHg 63%
02:00 +14°C° 0 mm 1 mps 748 mmHg 63%
03:00 +14°C° 0 mm 1 mps 748 mmHg 63%
04:00 +14°C° 0 mm 1 mps 748 mmHg 63%
05:00 +14°C° 0 mm 0 mps 748 mmHg 63%
06:00 +14°C° 0 mm 0 mps 748 mmHg 62%
07:00 +18°C° 0 mm 1 mps 748 mmHg 56%
08:00 +20°C° 0 mm 1 mps 748 mmHg 50%
09:00 +20°C° 0 mm 2 mps 748 mmHg 44%
10:00 +21°C° 0 mm 2 mps 748 mmHg 40%
11:00 +22°C° 0 mm 3 mps 748 mmHg 36%
12:00 +24°C° 0 mm 3 mps 747 mmHg 33%
13:00 +25°C° 0 mm 3 mps 747 mmHg 32%
14:00 +25°C° 0 mm 3 mps 747 mmHg 30%
15:00 +25°C° 0 mm 3 mps 747 mmHg 29%
16:00 +25°C° 0 mm 2 mps 747 mmHg 34%
17:00 +24°C° 0 mm 2 mps 746 mmHg 40%
18:00 +24°C° 0 mm 1 mps 746 mmHg 45%
19:00 +21°C° 0 mm 1 mps 746 mmHg 48%
20:00 +19°C° 0 mm 1 mps 746 mmHg 52%
21:00 +15°C° 0 mm 0 mps 746 mmHg 55%
22:00 +16°C° 0 mm 1 mps 745 mmHg 57%
23:00 +15°C° 0 mm 1 mps 745 mmHg 58%

Day after tomorrow, 29 July, Thursday

Time Temperature Precipitation Wind Pressure Humidity
00:00 +15°C° 0 mm 2 mps 745 mmHg 59%
01:00 +15°C° 0 mm 2 mps 745 mmHg 60%
02:00 +15°C° 0 mm 2 mps 744 mmHg 62%
03:00 +14°C° 0 mm 2 mps 744 mmHg 63%
04:00 +15°C° 0 mm 2 mps 744 mmHg 65%
05:00 +16°C° 0 mm 2 mps 744 mmHg 67%
06:00 +17°C° 0 mm 2 mps 743 mmHg 69%
07:00 +19°C° 0 mm 3 mps 743 mmHg 66%
08:00 +21°C° 0 mm 3 mps 743 mmHg 64%
09:00 +22°C° 0 mm 4 mps 743 mmHg 62%
10:00 +21°C° 0.2 mm 3 mps 742 mmHg 71%
11:00 +20°C° 0.2 mm 3 mps 742 mmHg 81%
12:00 +18°C° 0.2 mm 2 mps 742 mmHg 90%
13:00 +19°C° 0.3 mm 2 mps 742 mmHg 90%
14:00 +19°C° 0.3 mm 2 mps 741 mmHg 90%
15:00 +19°C° 0.3 mm 3 mps 741 mmHg 89%
16:00 +19°C° 0.4 mm 3 mps 741 mmHg 91%
17:00 +18°C° 0.4 mm 3 mps 740 mmHg 93%
18:00 +18°C° 0.4 mm 2 mps 740 mmHg 95%
19:00 +18°C° 0.1 mm 2 mps 740 mmHg 95%
20:00 +17°C° 0.1 mm 2 mps 740 mmHg 96%
21:00 +17°C° 0.1 mm 2 mps 740 mmHg 97%
22:00 +17°C° 0 mm 2 mps 740 mmHg 97%
23:00 +16°C° 0 mm 2 mps 740 mmHg 97%

30 July, Friday

Time Temperature Precipitation Wind Pressure Humidity
00:00 +16°C° 0 mm 2 mps 739 mmHg 97%
01:00 +16°C° 0 mm 2 mps 739 mmHg 97%
02:00 +16°C° 0 mm 2 mps 739 mmHg 97%
03:00 +16°C° 0 mm 2 mps 739 mmHg 97%
04:00 +17°C° 0 mm 3 mps 739 mmHg 95%
05:00 +17°C° 0 mm 3 mps 739 mmHg 94%
06:00 +18°C° 0 mm 4 mps 739 mmHg 92%
07:00 +20°C° 0 mm 4 mps 739 mmHg 84%
08:00 +22°C° 0 mm 4 mps 739 mmHg 76%
09:00 +25°C° 0 mm 4 mps 739 mmHg 67%
10:00 +26°C° 0 mm 5 mps 739 mmHg 60%
11:00 +27°C° 0 mm 6 mps 739 mmHg 52%
12:00 +29°C° 0 mm 6 mps 739 mmHg 44%
13:00 +28°C° 0 mm 5 mps 739 mmHg 46%
14:00 +28°C° 0 mm 5 mps 739 mmHg 48%
15:00 +27°C° 0 mm 4 mps 739 mmHg 49%
16:00 +27°C° 0 mm 4 mps 739 mmHg 51%
17:00 +27°C° 0 mm 4 mps 739 mmHg 52%
18:00 +26°C° 0 mm 4 mps 739 mmHg 54%
19:00 +25°C° 0 mm 3 mps 739 mmHg 58%
20:00 +22°C° 0 mm 3 mps 739 mmHg 63%
21:00 +21°C° 0 mm 2 mps 740 mmHg 67%
22:00 +20°C° 0 mm 2 mps 740 mmHg 72%
23:00 +19°C° 0 mm 2 mps 741 mmHg 76%

31 July, Saturday

Time Temperature Precipitation Wind Pressure Humidity
00:00 +18°C° 0 mm 2 mps 741 mmHg 81%
01:00 +17°C° 0 mm 2 mps 741 mmHg 83%
02:00 +16°C° 0 mm 2 mps 741 mmHg 85%
03:00 +16°C° 0 mm 1 mps 742 mmHg 87%
04:00 +18°C° 0 mm 1 mps 742 mmHg 83%
05:00 +19°C° 0 mm 1 mps 742 mmHg 78%
06:00 +20°C° 0 mm 1 mps 743 mmHg 74%
07:00 +22°C° 0 mm 1 mps 743 mmHg 66%
08:00 +24°C° 0 mm 2 mps 743 mmHg 58%
09:00 +26°C° 0 mm 2 mps 743 mmHg 50%
10:00 +28°C° 0 mm 2 mps 743 mmHg 46%
11:00 +29°C° 0 mm 3 mps 743 mmHg 43%
12:00 +30°C° 0 mm 3 mps 742 mmHg 39%
13:00 +30°C° 0 mm 3 mps 742 mmHg 39%
14:00 +30°C° 0 mm 3 mps 742 mmHg 39%
15:00 +31°C° 0 mm 3 mps 742 mmHg 38%
16:00 +30°C° 0 mm 3 mps 742 mmHg 43%
17:00 +29°C° 0 mm 3 mps 741 mmHg 47%
18:00 +28°C° 0 mm 3 mps 741 mmHg 51%
19:00 +27°C° 0 mm 3 mps 741 mmHg 54%
20:00 +26°C° 0 mm 3 mps 741 mmHg 57%
21:00 +24°C° 0 mm 3 mps 741 mmHg 61%
22:00 +22°C° 0.7 mm 3 mps 741 mmHg 70%
23:00 +21°C° 0.7 mm 3 mps 741 mmHg 78%

1 August, Sunday

Time Temperature Precipitation Wind Pressure Humidity
00:00 +20°C° 0.7 mm 3 mps 741 mmHg 87%
01:00 +19°C° 0.5 mm 3 mps 741 mmHg 89%
02:00 +19°C° 0.5 mm 3 mps 741 mmHg 92%
03:00 +19°C° 0.5 mm 2 mps 741 mmHg 95%
04:00 +19°C° 0 mm 2 mps 741 mmHg 93%
05:00 +20°C° 0 mm 2 mps 741 mmHg 92%
06:00 +20°C° 0 mm 2 mps 741 mmHg 90%
07:00 +23°C° 0 mm 2 mps 741 mmHg 81%
08:00 +25°C° 0 mm 3 mps 741 mmHg 72%
09:00 +26°C° 0 mm 3 mps 741 mmHg 63%
10:00 +27°C° 0 mm 3 mps 741 mmHg 57%
11:00 +29°C° 0 mm 4 mps 742 mmHg 51%
12:00 +30°C° 0 mm 4 mps 742 mmHg 45%
13:00 +30°C° 0 mm 4 mps 742 mmHg 45%
14:00 +30°C° 0 mm 4 mps 742 mmHg 45%
15:00 +29°C° 0 mm 5 mps 742 mmHg 46%
16:00 +27°C° 0.3 mm 4 mps 742 mmHg 56%
17:00 +25°C° 0.3 mm 3 mps 742 mmHg 67%
18:00 +22°C° 0.3 mm 3 mps 742 mmHg 78%
19:00 +21°C° 0.1 mm 2 mps 742 mmHg 81%
20:00 +20°C° 0.1 mm 2 mps 742 mmHg 83%
21:00 +20°C° 0.1 mm 1 mps 742 mmHg 86%
22:00 +20°C° 0 mm 1 mps 743 mmHg 87%
23:00 +20°C° 0 mm 1 mps 743 mmHg 87%
Show more